Regional Weather Roundup
Issued by NWS

Home | Current Version | Previous Version | Text Only | Print | Product List | Glossary On
Versions: 1 2 3 4 5 6 7 8 9 10 11 12 13 14 15 16 17 18 19 20 21 22 23 24 25 26 27 28 29 30 31 32 33 34 35 36 37 38 39 40 41 42 43 44 45 46 47 48 49 50
347
ASUS45 KBOI 260010
RWRID

IDAHO REGIONAL WEATHER ROUNDUP
NATIONAL WEATHER SERVICE BOISE ID
500 PM MST SAT FEB 25 2017

NOTE: "FAIR" INDICATES FEW OR NO CLOUDS BELOW 12000 FEET
WITH NO SIGNIFICANT WEATHER AND/OR OBSTRUCTIONS TO VISIBILITY

IDZ012-014-260100-
SOUTHWEST IDAHO


CITY           SKY/WX    TMP DP  RH WIND       PRES   REMARKS
BOISE          PTSUNNY   39  15  37 NW7       30.03F WCI  34
CALDWELL       PTSUNNY   42  16  34 NW5       30.05F
MOUNTAIN HOME  SUNNY     38  15  39 NW8       30.03F WCI  32
$$

IDZ016-017-260100-
SOUTHCENTRAL IDAHO


CITY           SKY/WX    TMP DP  RH WIND       PRES   REMARKS
BURLEY         MIX PCPN  31  12  45 W15       29.99F WCI  20
JEROME           N/A    N/A N/A N/A MISG      30.01F
TWIN FALLS     SUNNY     27  14  58 SW10      30.01F WCI  17
$$

IDZ019>023-260100-
SOUTHEAST IDAHO


CITY           SKY/WX    TMP DP  RH WIND       PRES   REMARKS
IDAHO FALLS    MOSUNNY   19  12  74 SW18      29.95S WCI   4
POCATELLO      MOSUNNY   23  14  68 W13       29.99F WCI  11
REXBURG        SUNNY     20   7  57 SW10      29.93S WCI   9
$$

IDZ006-010-011-018-031-032-260100-
CENTRAL IDAHO MOUNTAINS


CITY           SKY/WX    TMP DP  RH WIND       PRES   REMARKS
MCCALL         CLOUDY    24  11  57 S8        29.90F WCI  15
HAILEY         MOSUNNY   23  14  68 S10       29.92F WCI  12
STANLEY          N/A     19   6  57 N6        29.87S WCI  11
SALMON         CLOUDY    32  10  40 CALM      29.88S
CHALLIS        CLOUDY    26  13  57 SE9       29.86F WCI  17
$$

IDZ002-004-006-007-026-260100-
NORTHERN IDAHO


CITY           SKY/WX    TMP DP  RH WIND       PRES   REMARKS
LEWISTON       CLOUDY    41  21  44 CALM      30.01F
LOWELL           N/A     40  23  50 CALM      30.04F
COEUR D`ALENE  CLOUDY    32  24  72 S9        29.94F WCI  24
MULLAN PASS    LGT SNOW  15  14  95 VRB5      29.75F VSB 3/4 WCI   8
$$




USA.gov is the U.S. government's official web portal to all federal, state and local government web resources and services.